Omak, WA

12:14 AM PDT on April 23, 2017 (GMT -0700)
Omak

Weather History for KOMK - April, 2014

Change the Weather History Date:

Thursday, April 10, 2014

  Actual Average Record
Temperature  
Mean Temperature 51 °F 49 °F  
Max Temperature 67 °F 62 °F 79 °F (1934)
Min Temperature 34 °F 36 °F 21 °F (1954)
Degree Days  
Heating Degree Days 14 16  
Month to date heating degree days 158 170  
Since 1 July heating degree days 5898 5760  
Cooling Degree Days 0 0  
Month to date cooling degree days 0 0  
Year to date cooling degree days 0 0  
Moisture  
Dew Point 23 °F    
Average Humidity 36    
Maximum Humidity 52    
Minimum Humidity 20    
Precipitation  
Precipitation 0.00 in 0.04 in 0.60 in (1941)
Month to date precipitation T 0.33  
Year to date precipitation 2.98 4.82  
Sea Level Pressure  
Sea Level Pressure 30.07 in    
Wind  
Wind Speed 7 mph (South)    
Max Wind Speed 16 mph    
Max Gust Speed 20 mph    
Visibility 10 miles    
Events      
T = Trace of Precipitation, MM = Missing Value Source: NWS Daily Summary

Daily Weather History Graph

Daily Weather History Graph

Search for Another Location

Airport or City:

Trip Planner

Search our weather history database for the weather conditions in past years. The results will help you decide how hot, cold, wet, or windy it might be!

Date:

Astronomy

Apr. 10, 2014 Rise Set
Actual Time 6:17 AM PDT 7:42 PM PDT
Civil Twilight 5:45 AM PDT 8:14 PM PDT
Nautical Twilight 5:05 AM PDT 8:54 PM PDT
Astronomical Twilight 4:23 AM PDT 9:36 PM PDT
Moon 3:11 PM PDT (4/10) 4:03 AM PDT (4/10)
Length of Visible Light 14h 29m
Length of Day
13h 24m
Waxing Gibbous, 80% of the Moon is Illuminated
Apr 10
Waxing Gibbous
Apr 15
Full
Apr 22
Last Quarter
Apr 28
New
May 6
First Quarter

Hourly Weather History & Observations

Time (PDT) Temp. Windchill Dew Point Humidity Pressure Visibility Wind Dir Wind Speed Gust Speed Precip Events Conditions
12:53 AM 44.1 °F 40.1 °F 21.9 °F 42% 30.09 in 10.0 mi North 6.9 mph - N/A   Clear
1:53 AM 39.9 °F 35.1 °F 21.0 °F 47% 30.09 in 10.0 mi WNW 6.9 mph - N/A   Clear
2:53 AM 39.0 °F 32.3 °F 19.9 °F 46% 30.09 in 10.0 mi WNW 10.4 mph - N/A   Clear
3:53 AM 37.9 °F 32.1 °F 19.9 °F 48% 30.10 in 10.0 mi WNW 8.1 mph - N/A   Clear
4:53 AM 39.0 °F 34.0 °F 19.0 °F 45% 30.10 in 10.0 mi NNW 6.9 mph - N/A   Clear
5:53 AM 35.1 °F - 19.0 °F 52% 30.12 in 10.0 mi Calm Calm - N/A   Clear
7:53 AM 42.1 °F - 23.0 °F 47% 30.14 in 10.0 mi Calm Calm - N/A   Clear
8:53 AM 43.0 °F - 23.0 °F 45% 30.16 in 10.0 mi Calm Calm - N/A   Clear
9:53 AM 46.9 °F - 24.1 °F 41% 30.15 in 10.0 mi ESE 3.5 mph - N/A   Clear
10:53 AM 54.0 °F - 21.9 °F 29% 30.15 in 10.0 mi Variable 3.5 mph - N/A   Clear
11:53 AM 55.0 °F - 23.0 °F 29% 30.14 in 10.0 mi SSE 5.8 mph - N/A   Clear
12:53 PM 57.9 °F - 21.0 °F 24% 30.11 in 10.0 mi SSE 6.9 mph - N/A   Clear
1:53 PM 61.0 °F - 24.1 °F 24% 30.09 in 10.0 mi SSW 10.4 mph - N/A   Clear
2:53 PM 63.0 °F - 25.0 °F 24% 30.06 in 10.0 mi SSE 6.9 mph - N/A   Clear
4:53 PM 66.0 °F - 25.0 °F 21% 30.01 in 10.0 mi SSE 10.4 mph - N/A   Clear
5:53 PM 64.9 °F - 24.1 °F 21% 30.01 in 10.0 mi SSE 11.5 mph - N/A   Clear
6:53 PM 62.1 °F - 24.1 °F 23% 29.99 in 10.0 mi South 6.9 mph - N/A   Clear
7:53 PM 57.0 °F - 26.1 °F 30% 29.99 in 10.0 mi South 6.9 mph - N/A   Clear
8:53 PM 57.0 °F - 24.1 °F 28% 29.99 in 10.0 mi SSE 11.5 mph - N/A   Clear
9:53 PM 55.0 °F - 23.0 °F 29% 30.00 in 10.0 mi South 10.4 mph - N/A   Clear
10:53 PM 53.1 °F - 25.0 °F 34% 29.99 in 10.0 mi South 9.2 mph - N/A   Clear
11:53 PM 50.0 °F - 28.0 °F 43% 29.99 in 10.0 mi West 5.8 mph - N/A   Clear